Location: El Hornillo
(40.2499°N, 5.1036°W)
Time: 10:16:55
(UTC+00:00)

Cosmos 1110 Rocket - Pass Details

Date: 05 August 2024
Orbit: 751 x 777 km, 74.0° (Epoch: 18 September)

Event Time Altitude Azimuth Distance (km) Brightness Sun altitude
Exits shadow 21:26:38 35° 160° (SSE) 1,227 4.6 -19.4°
Maximum altitude 21:28:32 53° 104° (ESE) 935 4.1 -19.7°
Drops below altitude 10° 21:33:36 10° 29° (NNE) 2,302 6.7 -20.4°
Sets 21:36:01 0° 24° (NNE) 3,227 7.5 -20.7°
